Probability
1 1 2 2 2 3 3 1 0 0 0 0 1 0 0 0 0 0 0 0 0 0 0 0 0 0 0 0 0 0 0 0 0 0 0 0 0 0
1 1 2 2 1 2 2 1 0 0 0 0 1 1 0 0 0 0 0 0 0 0 0 0 0 0 0 0 0 0 0 0 0 0 0 0 0 0
1 1 1 1 1 1 1 1 0 0 0 0 0 1 2 1 0 0 0 0 0 0 0 0 0 0 0 0 0 0 0 0 0 0 0 0 0 0
1 1 0 0 1 0 0 0 0 0 0 0 0 1 3 2 0 0 0 0 0 0 0 0 0 0 0 0 0 0 0 0 0 0 0 0 0 0
1 1 1 1 1 0 0 0 0 0 0 0 0 1 1 1 1 1 1 2 1 0 0 0 0 0 0 0 0 0 0 0 0 0 0 0 0 0
0 1 1 1 0 0 0 0 0 0 0 0 0 0 0 1 2 2 2 2 1 0 0 0 0 0 0 0 0 0 0 0 0 0 0 0 0 0
1 1 1 1 0 0 0 0 0 0 0 0 0 0 0 2 3 2 1 1 1 1 2 1 1 1 1 1 0 0 0 0 0 0 0 0 0 0
4 2 0 0 0 0 0 0 0 0 0 0 0 0 0 1 2 1 1 1 2 4 5 4 2 2 3 3 1 0 0 0 0 0 0 0 0 0
6 4 2 1 1 2 1 1 1 1 1 1 1 1 1 2 2 2 3 4 5 7 7 5 3 3 3 3 1 0 0 0 0 0 0 0 0 0
6 5 3 2 2 2 2 2 3 2 1 1 2 2 2 3 3 3 3 4 6 8 7 5 4 3 2 1 1 0 0 0 0 0 0 0 0 0
8 5 3 2 2 2 2 3 4 4 3 2 1 1 1 2 2 2 2 3 5 6 7 5 4 4 3 1 1 0 0 0 0 0 0 0 0 0
11 9 4 2 1 0 2 3 3 4 6 6 4 3 2 1 1 2 2 3 4 6 8 8 6 6 5 4 3 3 1 0 0 0 0 0 0 0
14 12 7 2 0 0 1 2 1 2 7 9 9 7 5 4 4 5 5 6 7 8 9 9 8 7 6 6 7 7 5 3 1 0 0 0 0 0
14 12 7 2 0 0 0 0 0 1 3 6 8 8 8 7 8 9 9 9 10 10 10 9 8 6 5 6 8 9 8 7 5 2 1 0 0 0
9 7 4 1 0 0 0 0 0 0 1 2 4 5 6 7 8 8 8 8 8 7 7 9 9 7 6 6 7 8 9 9 7 5 2 1 0 0
4 3 2 1 0 0 0 1 1 1 1 2 3 3 3 4 5 5 4 4 3 2 4 7 9 9 7 6 5 6 7 9 8 6 3 1 0 0
4 4 3 2 2 1 1 3 3 3 3 4 4 4 3 3 4 4 3 2 1 0 1 4 7 8 7 5 3 3 4 6 8 7 4 2 1 0
5 6 6 5 4 3 3 4 5 5 5 5 6 6 5 4 5 5 3 1 0 0 1 2 4 6 5 3 1 0 1 4 7 8 6 4 2 1
4 5 6 6 6 5 4 4 4 5 6 6 5 5 5 5 5 4 2 0 0 1 2 3 4 5 3 1 0 0 0 2 5 6 5 4 2 1
3 4 6 6 6 6 5 4 3 4 5 5 3 3 4 4 3 3 2 1 0 1 2 3 4 3 2 0 0 0 0 1 2 3 3 3 2 1
4 5 6 6 6 5 4 3 3 3 4 3 2 2 2 2 1 1 1 1 0 1 3 3 3 2 1 1 0 0 0 0 1 1 2 2 1 1
4 5 6 5 4 4 3 3 3 3 3 2 1 1 1 1 0 0 0 0 0 2 3 3 3 2 1 1 0 0 0 0 0 1 1 1 1 1
2 4 4 4 4 3 3 3 3 3 3 1 0 0 0 0 0 0 0 0 0 1 3 3 2 1 1 1 0 0 0 0 1 1 1 0 0 1
Wind_Speed
5 5 5 3 3 4 4 4 4 4 3 3 3 2 2 2 2 4 4 5 6 6 6 6 6 6 6 7 7 7 7 7 7 7 7 7 7 7
3 3 4 4 3 4 4 4 4 4 3 2 2 2 2 2 3 4 4 6 8 7 6 6 6 7 7 7 7 7 7 7 7 7 8 7 7 6
5 5 5 5 3 4 4 4 4 3 3 2 1 2 2 3 2 3 4 4 4 8 6 6 7 7 8 8 8 7 7 8 8 8 7 7 7 7
6 5 6 4 4 4 4 4 3 3 4 3 2 2 3 3 3 4 4 4 3 6 7 6 6 7 8 8 8 8 8 8 7 7 7 7 7 7
5 5 5 5 4 4 4 4 4 4 3 3 3 2 3 3 3 4 4 3 5 4 8 8 8 7 7 8 8 8 8 8 7 7 7 6 6 6
5 5 5 4 4 4 4 4 4 4 4 4 3 3 3 3 3 4 3 3 4 3 3 4 6 9 9 9 9 8 8 8 7 7 7 6 6 6
5 6 5 3 3 3 3 3 4 4 4 4 4 3 3 2 3 3 3 3 3 3 3 3 4 5 6 8 9 8 8 8 7 7 7 7 7 7
6 5 6 6 5 5 3 3 3 4 4 4 4 3 3 4 3 4 4 4 3 2 3 4 3 3 3 3 6 8 9 9 8 8 8 8 8 8
6 6 6 5 7 6 6 7 5 5 5 5 5 5 4 3 4 5 4 5 4 2 3 4 3 3 3 2 7 9 9 9 9 9 9 9 9 9
6 6 6 5 5 5 6 6 6 6 7 7 6 6 5 4 4 6 5 6 6 5 4 5 3 4 3 2 6 8 8 9 10 10 10 9 9 9
6 6 6 6 4 5 7 6 6 6 6 5 5 4 4 3 4 6 6 6 5 4 4 5 4 4 4 4 5 8 9 10 10 11 10 10 10 9
5 6 5 5 6 6 7 7 7 6 5 5 6 7 8 7 7 7 7 6 5 4 3 4 5 4 4 3 3 4 6 8 10 11 11 11 9 7
5 5 5 7 7 8 8 7 5 5 6 6 6 6 6 6 7 7 6 6 6 5 2 3 5 4 5 4 3 3 4 4 5 7 9 11 11 9
5 4 3 7 8 8 7 5 5 6 6 6 6 6 5 5 4 5 6 6 6 7 5 5 5 5 5 5 4 3 3 4 4 4 5 7 10 11
4 2 1 5 7 7 8 7 7 7 7 7 7 6 5 4 4 4 6 6 7 6 6 6 7 6 6 6 5 4 4 4 4 4 5 5 5 6
5 3 5 6 6 5 5 7 7 6 6 6 6 5 5 5 5 5 4 4 5 5 5 5 6 7 6 6 6 5 4 4 4 4 4 4 5 5
4 4 4 5 6 6 6 6 6 6 6 6 6 6 5 5 5 4 4 4 5 5 4 4 5 5 6 6 6 5 5 5 4 4 4 5 5 5
5 5 5 6 7 6 6 6 6 6 6 6 6 6 6 6 5 5 5 5 5 5 5 4 4 4 5 5 5 6 5 4 4 4 5 5 5 5
7 6 6 6 6 6 6 6 6 6 5 6 6 6 6 6 6 5 6 6 6 5 5 4 4 4 6 5 4 5 5 4 4 4 5 5 5 5
7 7 6 6 6 6 6 5 5 5 5 6 6 5 5 5 6 6 6 6 5 6 6 5 5 5 5 6 5 4 6 5 5 5 5 4 4 4
6 6 6 6 5 5 5 5 5 5 5 5 5 5 5 5 5 6 5 5 6 6 6 5 4 5 5 5 6 5 4 6 5 5 6 5 5 5
6 5 5 5 5 5 5 5 5 5 5 5 5 4 4 5 5 6 5 5 5 5 6 5 4 5 6 7 7 6 5 4 5 7 7 6 5 6
4 4 4 5 5 5 5 5 6 5 5 5 5 5 5 5 5 5 5 5 5 5 6 5 5 5 6 7 7 6 7 6 5 4 4 6 9 8
Wind_Direction
226 218 236 238 242 245 248 252 256 251 219 182 193 181 227 222 163 230 234 178 201 218 225 229 230 231 231 228 225 224 222 214 215 219 218 218 219 219
237 236 242 241 235 238 239 244 253 266 259 191 192 178 210 236 176 238 244 173 202 214 223 228 232 232 228 228 227 222 215 212 214 220 219 218 218 219
225 222 228 244 236 236 229 232 238 245 249 231 198 161 201 248 212 248 247 240 209 194 210 225 230 229 228 227 223 217 213 212 214 218 220 219 220 221
221 223 228 225 224 240 236 234 229 235 244 240 233 207 210 225 230 246 252 247 259 175 196 215 225 227 227 222 218 215 213 212 214 217 220 222 224 224
222 223 228 227 226 229 238 234 225 215 227 235 234 222 225 221 230 234 241 257 261 195 196 205 215 221 222 220 218 216 214 212 212 214 219 222 222 223
222 224 225 225 226 227 225 231 234 228 217 235 238 223 221 210 232 239 232 226 256 253 226 216 203 209 216 215 212 211 210 210 207 207 212 216 218 224
218 220 218 216 227 241 246 224 223 231 227 230 230 228 223 219 234 250 257 248 234 247 252 234 210 218 205 208 206 201 202 204 205 208 211 214 219 225
218 218 208 195 196 211 246 271 269 245 247 249 243 242 245 243 248 259 261 259 254 217 251 257 240 238 227 222 172 182 197 203 208 212 214 217 222 228
219 219 222 197 201 207 204 210 221 239 251 262 260 259 253 252 261 258 258 273 282 281 255 264 249 247 244 198 156 181 195 205 212 216 219 222 226 229
226 223 224 214 208 221 218 211 215 213 219 229 247 257 266 275 259 260 264 251 252 247 241 264 257 256 256 220 165 184 198 209 215 219 221 224 228 232
223 220 222 216 192 225 228 223 226 228 216 225 251 266 298 296 281 261 251 249 251 239 216 253 260 256 250 231 184 185 201 210 215 218 220 224 227 231
216 215 213 222 191 206 228 227 229 234 239 212 218 231 235 229 226 244 258 261 265 260 216 242 254 254 256 229 217 199 208 208 212 215 218 221 222 233
224 219 204 182 194 207 232 239 238 249 243 239 233 226 220 217 214 219 239 257 264 265 257 245 264 256 259 260 250 239 234 228 216 217 216 217 215 224
243 238 200 170 193 206 220 231 234 246 244 242 242 238 233 231 224 227 231 244 258 269 282 270 266 270 266 264 268 256 243 242 238 236 230 206 212 220
257 276 176 172 191 205 214 216 222 235 241 243 245 245 243 241 239 227 223 228 241 249 251 247 253 261 267 270 270 268 265 255 239 238 237 229 222 221
240 213 190 197 219 231 207 208 222 234 242 247 250 248 244 234 231 237 238 232 236 235 228 236 250 260 260 265 267 263 261 261 251 244 248 249 241 235
222 218 216 209 213 215 217 219 222 221 226 236 240 241 241 242 240 236 240 244 247 250 234 219 228 241 257 268 268 266 266 266 258 246 241 248 245 241
222 228 224 222 223 221 220 219 220 227 233 235 234 237 240 241 239 234 236 242 246 248 249 242 233 234 243 239 244 264 268 270 266 243 249 255 256 249
222 232 231 230 230 227 226 228 227 223 226 232 234 235 236 238 239 237 239 241 245 250 250 246 245 249 259 263 237 224 266 277 273 260 251 255 261 261
230 233 230 230 233 234 235 235 234 227 223 229 233 236 236 238 240 238 237 239 244 250 250 243 243 248 260 274 280 252 222 252 270 273 272 267 267 259
231 237 237 237 239 241 241 239 240 237 234 235 234 235 238 241 247 247 245 237 245 248 251 250 247 246 261 262 263 261 236 214 241 267 282 277 273 266
234 237 240 242 242 242 240 238 236 238 236 236 237 234 234 237 240 246 252 249 246 253 260 261 244 238 247 255 265 270 269 253 226 230 245 255 273 278
242 242 241 241 241 243 239 233 234 239 238 237 238 236 233 233 237 240 244 251 255 256 261 263 257 249 254 258 264 272 274 270 267 250 243 224 226 241